I4GOS-3 Weather Reports


time (UTC)temp
C
wind
direction
speed
KPH
gust
KPH
rain 1hr
cm
rain 24hr
cm
rain mn
cm
humidity
%
barometer
mb
20260506170936 21 135 16.1 0.0 0.00 0.00 0.00 59 1009.4
20260506170436 21 157 4.8 0.0 0.00 0.00 0.00 59 1009.4
20260506165936 21 148 4.8 0.0 0.00 0.00 0.00 58 1009.4
20260506165436 21 144 14.5 0.0 0.00 0.00 0.00 58 1009.4
20260506164935 22 129 12.9 0.0 0.00 0.00 0.00 57 1009.3
20260506164506 22 160 11.3 0.0 0.00 0.00 0.00 57 1009.4
20260506164435 22 160 11.3 0.0 0.00 0.00 0.00 57 1009.4
20260506163935 22 151 9.7 0.0 0.00 0.00 0.00 57 1009.5
20260506163435 22 145 12.9 0.0 0.00 0.00 0.00 56 1009.4
20260506162934 22 150 14.5 0.0 0.00 0.00 0.00 56 1009.5
20260506162434 22 136 14.5 0.0 0.00 0.00 0.00 56 1009.5
20260506161934 22 130 11.3 0.0 0.00 0.00 0.00 56 1009.5
20260506161434 22 138 16.1 0.0 0.00 0.00 0.00 56 1009.5
20260506160933 22 143 12.9 0.0 0.00 0.00 0.00 56 1009.6
20260506160433 22 147 8.0 0.0 0.00 0.00 0.00 56 1009.6
20260506155933 22 131 14.5 0.0 0.00 0.00 0.00 55 1009.5
20260506155433 22 133 12.9 0.0 0.00 0.00 0.00 56 1009.6
20260506154932 22 146 19.3 0.0 0.00 0.00 0.00 55 1009.6
20260506154432 22 116 12.9 0.0 0.00 0.00 0.00 55 1009.5
20260506153932 22 135 16.1 0.0 0.00 0.00 0.00 54 1009.5
20260506153432 23 139 19.3 0.0 0.00 0.00 0.00 53 1009.4
20260506152932 23 152 11.3 0.0 0.00 0.00 0.00 54 1009.4
20260506152431 23 162 11.3 0.0 0.00 0.00 0.00 56 1009.4
20260506151931 23 147 3.2 0.0 0.00 0.00 0.00 56 1009.3
20260506150931 22 148 8.0 0.0 0.00 0.00 0.00 57 1009.4
20260506150430 22 166 8.0 0.0 0.00 0.00 0.00 56 1009.4
20260506145930 22 145 4.8 0.0 0.00 0.00 0.00 56 1009.4
20260506145430 22 166 11.3 0.0 0.00 0.00 0.00 56 1009.3
20260506144930 22 142 9.7 0.0 0.00 0.00 0.00 57 1009.3
20260506144430 22 131 12.9 0.0 0.00 0.00 0.00 56 1009.3
20260506143929 22 142 14.5 0.0 0.00 0.00 0.00 56 1009.3
20260506143429 22 145 16.1 0.0 0.00 0.00 0.00 55 1009.2
20260506142929 22 150 19.3 0.0 0.00 0.91 0.00 54 1009.3
20260506142429 23 153 16.1 0.0 0.00 0.91 0.00 54 1009.3
20260506141928 23 153 6.4 0.0 0.00 0.91 0.00 55 1009.2
20260506141428 22 149 12.9 0.0 0.00 0.91 0.00 54 1009.2
20260506140928 22 151 12.9 0.0 0.00 0.91 0.00 55 1009.4
20260506140428 22 176 14.5 0.0 0.00 0.91 0.00 54 1009.6
20260506135928 22 165 19.3 0.0 0.00 0.91 0.00 53 1009.6
20260506135427 22 147 22.5 0.0 0.00 0.91 0.00 54 1009.6
20260506134927 22 146 20.9 0.0 0.00 0.91 0.00 54 1009.8
20260506134427 22 145 3.2 0.0 0.00 0.91 0.00 55 1009.8
20260506133926 22 178 6.4 0.0 0.00 0.91 0.00 55 1009.8
20260506133426 22 144 12.9 0.0 0.00 0.91 0.00 54 1009.9
20260506132926 22 155 14.5 0.0 0.00 0.91 0.00 54 1010.0
20260506132426 22 149 11.3 0.0 0.00 0.91 0.00 53 1010.1
20260506131926 22 142 9.7 0.0 0.00 0.91 0.00 53 1010.2
20260506131425 22 147 9.7 0.0 0.00 0.91 0.00 52 1010.2
20260506130925 22 148 3.2 0.0 0.00 0.91 0.00 52 1010.3
20260506130425 22 141 14.5 0.0 0.00 0.91 0.00 53 1010.3
20260506125925 22 145 8.0 0.0 0.00 0.91 0.00 53 1010.4
20260506125424 22 147 20.9 0.0 0.00 0.91 0.00 53 1010.4
20260506124924 22 138 30.6 0.0 0.00 0.91 0.00 54 1010.5
20260506124424 22 145 16.1 0.0 0.00 0.91 0.00 54 1010.6
20260506123924 22 168 17.7 0.0 0.00 0.91 0.00 53 1010.7
20260506122922 22 160 14.5 0.0 0.00 0.91 0.00 55 1010.5
20260506122422 22 138 16.1 0.0 0.00 0.91 0.00 56 1010.5
20260506121922 22 149 12.9 0.0 0.00 0.91 0.00 55 1010.5
20260506121422 22 149 12.9 0.0 0.00 0.91 0.00 55 1010.5
20260506120921 22 152 12.9 0.0 0.00 0.91 0.00 55 1010.6
20260506120421 22 168 19.3 0.0 0.00 0.91 0.00 55 1010.6
20260506120005 22 154 0.0 0.0 0.00 0.91 0.00 55 1010.6
20260506115921 22 154 0.0 0.0 0.00 0.91 0.00 55 1010.6
20260506115421 22 147 4.8 0.0 0.00 0.91 0.00 56 1010.5
20260506114920 22 137 8.0 0.0 0.00 0.91 0.00 58 1010.6
20260506114420 22 142 14.5 0.0 0.00 0.91 0.00 57 1010.6
20260506113920 22 143 6.4 0.0 0.00 0.91 0.00 58 1010.7
20260506113420 22 133 3.2 0.0 0.00 0.91 0.00 59 1010.7
20260506112920 21 149 0.0 0.0 0.00 0.91 0.00 60 1010.8
20260506112419 21 133 16.1 0.0 0.00 0.91 0.00 60 1010.9
20260506111919 21 137 11.3 0.0 0.00 0.91 0.00 62 1010.9
20260506111419 21 131 11.3 0.0 0.00 0.91 0.00 62 1011.0
20260506110919 21 135 12.9 0.0 0.00 0.91 0.00 62 1011.2
20260506110418 21 137 6.4 0.0 0.00 0.91 0.00 63 1011.1
20260506105918 21 166 12.9 0.0 0.00 0.91 0.00 63 1011.1
20260506105418 21 147 1.6 0.0 0.00 0.91 0.00 64 1011.2
20260506104918 21 154 6.4 0.0 0.00 0.91 0.00 63 1011.1
20260506104418 20 170 3.2 0.0 0.00 0.91 0.00 64 1011.2
20260506103916 20 135 19.3 0.0 0.00 0.91 0.00 63 1011.1
20260506103416 20 141 8.0 0.0 0.00 0.91 0.00 63 1011.1
20260506102916 20 161 12.9 0.0 0.00 0.91 0.00 63 1011.2
20260506102414 20 141 20.9 0.0 0.00 0.91 0.00 63 1011.2
20260506101914 20 147 14.5 0.0 0.00 0.91 0.00 64 1011.3
20260506101414 20 154 14.5 0.0 0.00 0.91 0.00 63 1011.2
20260506100913 20 147 14.5 0.0 0.00 0.91 0.00 63 1011.2
20260506100410 20 138 14.5 0.0 0.00 0.91 0.00 63 1011.2
20260506095910 20 139 22.5 0.0 0.00 0.91 0.00 63 1011.2
20260506095410 20 152 14.5 0.0 0.00 0.91 0.00 63 1011.2
20260506094909 20 140 22.5 0.0 0.00 0.91 0.00 62 1011.2
20260506094408 20 120 17.7 0.0 0.00 0.91 0.00 62 1011.3
20260506093908 20 125 11.3 0.0 0.00 0.91 0.00 62 1011.3
20260506093408 20 145 19.3 0.0 0.00 0.91 0.00 63 1011.3
20260506092908 20 132 9.7 0.0 0.00 0.91 0.00 63 1011.3
20260506092407 20 135 1.6 0.0 0.00 0.91 0.00 63 1011.4
20260506091907 20 128 19.3 0.0 0.00 0.91 0.00 64 1011.4
20260506091407 20 131 14.5 0.0 0.00 0.91 0.00 64 1011.3
20260506090907 20 135 17.7 0.0 0.00 0.91 0.00 64 1011.3
20260506090407 20 125 17.7 0.0 0.00 0.91 0.00 64 1011.4
20260506085906 20 133 9.7 0.0 0.00 0.91 0.00 64 1011.4
20260506085406 20 133 19.3 0.0 0.00 0.91 0.00 64 1011.3
20260506084906 19 123 11.3 0.0 0.00 0.91 0.00 64 1011.3
20260506084406 19 127 16.1 0.0 0.00 0.91 0.00 64 1011.3
20260506083905 19 146 16.1 0.0 0.00 0.91 0.00 65 1011.3
20260506083405 19 133 12.9 0.0 0.00 0.91 0.00 66 1011.2
20260506082905 19 122 0.0 0.0 0.00 0.91 0.00 67 1011.1
20260506082405 18 125 19.3 0.0 0.00 0.91 0.00 67 1011.2
20260506081904 18 127 16.1 0.0 0.00 0.91 0.00 67 1011.2
20260506081404 18 154 9.7 0.0 0.00 0.91 0.00 67 1011.1
20260506080904 18 110 12.9 0.0 0.00 0.91 0.00 67 1011.1
20260506080400 18 135 6.4 0.0 0.00 0.91 0.00 67 1011.2
20260506073358 18 147 16.1 0.0 0.00 0.91 0.00 68 1011.0
20260506072858 18 138 20.9 0.0 0.00 0.91 0.00 69 1011.1
20260506072358 18 133 14.5 0.0 0.00 0.91 0.00 70 1011.1
20260506071858 18 141 14.5 0.0 0.00 0.91 0.00 71 1011.2
20260506071358 17 141 12.9 0.0 0.00 0.91 0.00 72 1011.3
20260506070857 17 139 12.9 0.0 0.00 0.91 0.00 73 1011.2
20260506070357 17 143 6.4 0.0 0.00 0.91 0.00 74 1011.2
20260506062355 16 130 0.0 0.0 0.00 0.91 0.00 69 1011.5
20260506061855 16 130 0.0 0.0 0.00 0.91 0.00 70 1011.6
20260506061355 16 177 0.0 0.0 0.00 0.91 0.00 71 1011.6
20260506060854 16 177 0.0 0.0 0.00 0.91 0.00 71 1011.7
20260506060354 16 177 0.0 0.0 0.00 0.91 0.00 72 1011.6
20260506051352 16 177 0.0 0.0 0.10 0.89 0.00 75 1011.7
20260506050852 16 177 0.0 0.0 0.18 0.89 0.00 76 1011.7
20260506050351 16 177 0.0 0.0 0.18 0.89 0.00 76 1011.8
20260506044851 16 177 1.6 0.0 0.10 0.84 0.00 75 1011.9
20260506044351 16 143 1.6 0.0 0.10 0.84 0.00 75 1011.8
20260506043850 17 141 4.8 0.0 0.00 0.81 0.00 75 1011.8
20260506043350 17 125 9.7 0.0 0.00 0.81 0.00 74 1011.6
20260506042850 17 133 8.0 0.0 0.00 0.81 0.00 73 1011.5
20260506042350 17 141 16.1 0.0 0.00 0.79 0.00 72 1011.5
20260506041849 17 143 11.3 0.0 0.00 0.79 0.00 73 1011.5
20260506041349 17 131 11.3 0.0 0.00 0.79 0.00 73 1011.4
20260506040849 17 143 14.5 0.0 0.00 0.79 0.00 73 1011.4
20260506040349 17 142 9.7 0.0 0.00 0.79 0.00 74 1011.4
20260506035848 17 131 11.3 0.0 0.00 0.79 0.00 74 1011.4
20260506035348 17 174 12.9 0.0 0.00 0.79 0.00 74 1011.4
20260506034848 17 141 8.0 0.0 0.00 0.79 0.00 74 1011.3
20260506034348 17 139 12.9 0.0 0.00 0.79 0.00 74 1011.3
20260506033848 17 131 9.7 0.0 0.00 0.79 0.00 74 1011.2
20260506033347 17 141 11.3 0.0 0.00 0.79 0.00 74 1011.2
20260506032847 17 131 9.7 0.0 0.00 0.79 0.00 74 1011.1
20260506032347 17 140 17.7 0.0 0.00 0.79 0.00 74 1011.1
20260506031847 17 137 12.9 0.0 0.00 0.79 0.00 74 1011.1
20260506031346 17 120 6.4 0.0 0.00 0.79 0.00 74 1011.1
20260506030846 17 98 9.7 0.0 0.00 0.79 0.00 74 1011.0
20260506030346 17 117 12.9 0.0 0.00 0.79 0.00 74 1011.1
20260506025846 17 121 12.9 0.0 0.00 0.79 0.00 74 1011.1
20260506025346 17 133 14.5 0.0 0.00 0.79 0.00 74 1011.1
20260506024845 17 141 12.9 0.0 0.00 0.79 0.00 74 1011.0
20260506024345 17 125 8.0 0.0 0.00 0.79 0.00 74 1011.0
20260506023845 17 127 16.1 0.0 0.00 0.79 0.00 75 1011.1
20260506023344 17 142 9.7 0.0 0.00 0.79 0.00 75 1011.3
20260506022844 17 132 16.1 0.0 0.00 0.79 0.00 75 1011.3
20260506022344 17 123 6.4 0.0 0.00 0.79 0.00 75 1011.4
20260506021844 17 139 3.2 0.0 0.00 0.79 0.00 75 1011.4
20260506021344 17 131 4.8 0.0 0.00 0.79 0.00 75 1011.5
20260506020843 17 137 14.5 0.0 0.00 0.79 0.00 75 1011.5
20260506020343 17 134 14.5 0.0 0.00 0.79 0.00 75 1011.6
20260506015843 17 125 6.4 0.0 0.00 0.79 0.00 75 1011.6
20260506015343 17 139 9.7 0.0 0.00 0.79 0.00 75 1011.7
20260506014842 17 118 14.5 0.0 0.00 0.79 0.00 75 1011.7
20260506014342 17 114 8.0 0.0 0.00 0.79 0.00 75 1011.7
20260506013842 17 143 6.4 0.0 0.00 0.79 0.00 75 1011.8
20260506013342 17 125 8.0 0.0 0.00 0.79 0.00 75 1011.8
20260506012842 17 105 4.8 0.0 0.00 0.79 0.00 75 1011.8
20260506012341 17 90 0.0 0.0 0.00 0.79 0.00 75 1011.8
20260506011841 17 84 0.0 0.0 0.00 0.79 0.00 75 1011.9
20260506011341 17 89 0.0 0.0 0.00 0.79 0.00 75 1012.0
20260506010841 17 110 0.0 0.0 0.00 0.79 0.00 75 1012.1
20260506010340 17 93 4.8 0.0 0.00 0.79 0.00 75 1012.2
20260506005840 17 108 3.2 0.0 0.00 0.79 0.00 75 1012.3
20260506005340 17 116 0.0 0.0 0.00 0.79 0.00 75 1012.2
20260506004840 17 108 1.6 0.0 0.00 0.79 0.00 75 1012.2
20260506004339 17 105 0.0 0.0 0.00 0.79 0.00 75 1012.2
20260506003839 17 103 4.8 0.0 0.00 0.79 0.00 75 1012.2
20260506003339 17 127 0.0 0.0 0.00 0.79 0.00 75 1012.2
20260506002839 17 132 3.2 0.0 0.00 0.79 0.00 75 1012.1
20260506002338 16 133 9.7 0.0 0.00 0.79 0.00 75 1012.2
20260506001837 16 114 4.8 0.0 0.00 0.79 0.00 75 1012.2
20260506001337 16 137 4.8 0.0 0.00 0.79 0.00 75 1012.3
20260506000837 16 135 6.4 0.0 0.00 0.79 0.00 74 1012.3
20260506000337 16 143 4.8 0.0 0.00 0.79 0.00 74 1012.3
20260505235836 16 130 9.7 0.0 0.00 0.79 0.00 74 1012.3
20260505235336 16 128 12.9 0.0 0.00 0.79 0.00 74 1012.4
20260505234836 16 123 11.3 0.0 0.00 0.79 0.00 73 1012.3
20260505234336 16 110 8.0 0.0 0.00 0.79 0.00 73 1012.3
20260505233835 16 138 8.0 0.0 0.00 0.79 0.00 73 1012.4
20260505233335 16 117 6.4 0.0 0.00 0.79 0.00 73 1012.5
20260505232835 16 122 1.6 0.0 0.00 0.79 0.00 72 1012.6
20260505232335 16 120 8.0 0.0 0.00 0.79 0.00 72 1012.7
20260505231834 16 125 8.0 0.0 0.00 0.79 0.00 71 1012.7
20260505231334 16 136 12.9 0.0 0.00 0.79 0.00 70 1012.7
20260505230834 16 146 17.7 0.0 0.00 0.79 0.00 69 1012.7
20260505230334 16 144 6.4 0.0 0.00 0.79 0.00 68 1012.9
20260505225834 15 160 0.0 0.0 0.00 0.79 0.00 68 1012.9
20260505225333 15 141 0.0 0.0 0.00 0.79 0.00 67 1013.0
20260505224833 16 145 0.0 0.0 0.00 0.79 0.00 67 1013.1
20260505224333 16 124 6.4 0.0 0.00 0.79 0.00 66 1013.0
20260505223833 16 126 9.7 0.0 0.00 0.79 0.00 66 1013.1
20260505223332 16 135 4.8 0.0 0.00 0.79 0.00 66 1013.1
20260505222832 16 168 0.0 0.0 0.00 0.79 0.00 65 1013.3
20260505222332 16 134 0.0 0.0 0.00 0.79 0.00 64 1013.2
20260505221832 16 147 0.0 0.0 0.00 0.79 0.00 64 1013.3
20260505221331 16 149 4.8 0.0 0.00 0.79 0.00 64 1013.4
20260505220831 16 156 1.6 0.0 0.00 0.79 0.00 63 1013.3
20260505220331 16 142 11.3 0.0 0.00 0.79 0.00 63 1013.2
20260505215831 16 127 4.8 0.0 0.00 0.79 0.00 63 1013.2
20260505215330 16 95 4.8 0.0 0.10 0.79 0.00 63 1013.2
20260505214830 16 141 0.0 0.0 0.10 0.79 0.00 64 1013.4
20260505214330 16 141 0.0 0.0 0.10 0.79 0.00 64 1013.4
20260505213830 16 147 0.0 0.0 0.10 0.79 0.00 64 1013.4
20260505213330 16 127 1.6 0.0 0.10 0.76 0.00 64 1013.4
20260505212829 16 133 8.0 0.0 0.10 0.76 0.00 65 1013.3
20260505212329 16 125 8.0 0.0 0.10 0.76 0.00 65 1013.3
20260505211829 16 123 19.3 0.0 0.13 0.74 0.00 65 1013.3
20260505211329 16 141 17.7 0.0 0.13 0.74 0.00 66 1013.4
20260505210828 16 129 11.3 0.0 0.13 0.74 0.00 67 1013.4
20260505210328 16 132 12.9 0.0 0.10 0.71 0.00 67 1013.4
20260505205828 16 125 20.9 0.0 0.10 0.71 0.00 68 1013.4
20260505205328 16 133 17.7 0.0 0.00 0.69 0.00 68 1013.3
20260505204828 16 135 19.3 0.0 0.00 0.69 0.00 68 1013.3
20260505204327 16 152 6.4 0.0 0.00 0.69 0.00 69 1013.4
20260505203827 16 152 4.8 0.0 0.00 0.66 0.00 69 1013.4
20260505203327 16 147 19.3 0.0 0.10 0.66 0.00 68 1013.3
20260505202824 16 169 11.3 0.0 0.13 0.66 0.00 68 1013.4
20260505202323 16 149 3.2 0.0 0.13 0.66 0.00 67 1013.5
20260505201823 16 156 6.4 0.0 0.13 0.66 0.00 67 1013.5
20260505201323 16 152 6.4 0.0 0.13 0.64 0.00 67 1013.7
20260505200823 16 166 19.3 0.0 0.13 0.64 0.00 66 1013.7
20260505200323 16 160 9.7 0.0 0.00 0.61 0.00 66 1013.7
20260505195822 16 135 9.7 0.0 0.00 0.61 0.00 65 1013.6
20260505195322 16 143 4.8 0.0 0.00 0.58 0.00 65 1013.5
20260505194822 16 158 6.4 0.0 0.00 0.58 0.00 64 1013.5
20260505194322 16 131 4.8 0.0 0.00 0.58 0.00 63 1013.4
20260505193821 16 131 6.4 0.0 0.00 0.58 0.00 62 1013.3
20260505193321 16 142 0.0 0.0 0.00 0.56 0.00 61 1013.3
20260505192821 16 137 6.4 0.0 0.00 0.56 0.00 61 1013.3
20260505192321 16 118 4.8 0.0 0.00 0.56 0.00 61 1013.2
20260505191820 16 136 12.9 0.0 0.10 0.56 0.00 61 1013.1
20260505191320 16 118 12.9 0.0 0.13 0.56 0.00 62 1013.0
20260505190820 16 122 14.5 0.0 0.23 0.56 0.00 62 1012.9
20260505190320 16 143 11.3 0.0 0.23 0.56 0.00 62 1012.8
20260505185319 17 115 6.4 0.0 0.33 0.51 0.00 64 1012.5
20260505184819 17 123 14.5 0.0 0.38 0.48 0.00 65 1012.7
20260505184319 17 123 4.8 0.0 0.38 0.46 0.00 66 1012.7
20260505183819 17 110 4.8 0.0 0.46 0.43 0.00 67 1012.7
20260505183318 17 111 6.4 0.0 0.38 0.41 0.00 68 1012.9
20260505182818 17 145 1.6 0.0 0.43 0.36 0.00 69 1013.2
20260505182318 17 139 12.9 0.0 0.41 0.33 0.00 70 1013.2
20260505181818 17 139 6.4 0.0 0.33 0.28 0.00 70 1013.2
20260505181317 17 138 12.9 0.0 0.36 0.25 0.00 71 1013.1
20260505180817 17 143 8.0 0.0 0.38 0.23 0.00 72 1013.1
20260505180317 17 135 14.5 0.0 0.33 0.20 0.00 72 1013.0
20260505175317 17 157 4.8 0.0 0.30 0.15 0.00 73 1013.0
20260505174815 17 159 4.8 0.0 0.23 0.13 0.00 74 1013.0
20260505174315 17 142 9.7 0.0 0.20 0.10 0.00 74 1012.9
20260505173811 17 160 1.6 0.0 0.18 0.08 0.00 74 1012.9
20260505173311 17 147 6.4 0.0 0.00 0.05 0.00 74 1012.9
20260505172308 17 139 9.7 0.0 0.00 0.03 0.00 74 1012.8
20260505171807 18 139 6.4 0.0 0.00 0.03 0.00 74 1012.8